Location: Alpine
(43.1636°N, 111.0180°W)
Time: 03:52:13
(UTC+00:00)

Tiros 1 despin weight - Pass Details

Date: 28 May 2022
Orbit: 591 x 639 km, 48.2° (Epoch: 30 June)

Event Time Altitude Azimuth Distance (km) Brightness Sun altitude
Rises 22:46:18 0° 186° (S) 2,889 ? 42.6°
Reaches altitude 10° 22:49:53 10° 158° (SSE) 1,976 ? 41.9°
Maximum altitude 22:51:48 13° 133° (SE) 1,807 ? 41.6°
Drops below altitude 10° 22:53:43 10° 107° (ESE) 1,967 ? 41.2°
Sets 22:57:15 0° 78° (ENE) 2,864 ? 40.6°
